Showing default

YAOGAN-32 B, 43643

Orbit data source: Space-Track

YAOGAN-32 B, 43643 is a payload satellite owned by PLA SSF (CN) in SSO that was launched on Tue, 09 Oct 2018 UTC via a CHANG ZHENG 2C/YZ-1S launch vehicle from the Jiuquan Satellite Launch Center, China (JSC). Payloads include a variety of satellites, spacecraft, and rockets equipped with specific instruments for various scientific and technological missions. These include communications satellites like Starlink; space stations such as the ISS; scientific satellites like the Hubble; Earth observation satellites from companies like Planet Labs, Umbra, and HawkEye 360; GPS; miniature CubeSats for education and research; and military/defense satellites.

Loading next visibility...
YAOGAN-32 B details
Identifier
43643, 2018-077B
Orbit
SSO
Last TLE update9 hours ago
Origin
Flag of CNPLA SSF (CN / PRC)
ManufacturerSECM?
MissionOperational Defense Sigint
Bus & MotorUnknown
Mass~500 kg wet, ~500 kg dry
Launch date (UTC)
2018-10-09 (6 years ago)
Launch vehicle
CHANG ZHENG 2C/YZ-1S
Launch site
Jiuquan Satellite Launch Center, China (JSC)
Object type
Payload
Rocket body
Debris
Shape & HBRBox + 2 Pan, 1 m
Radar Cross Section0.446 m², Large (>1 m²)

Expand to show TLE details & history

TLE from 9 hours ago
0 YAOGAN-32 B
1 43643U 18077B   24361.24100110  .00002066  00000-0  42078-3 0  9996
2 43643  97.9645  35.3580 0001488  83.3949 276.7422 14.62016537331195
Epoch: 2024-12-26T05:47Z
Definitive object data (Epoch: 2024-12-26T05:47:02.495Z)
Latitude-0.00002°
Longitude-146.62562°
Altitude689.542 km
Speed7.512 km/s
True Right ascension02h 21m 25s
True Declination0° 00' 00"
Sunlit
Object was in full shadow at TLE epoch
Visualization TLE readout
Latitude80.63034°
Longitude91.21704°
Altitude699.039 km
Speed7.514 km/s
Apparent Right ascension00h 53m 56s
Apparent Declination32° 22' 32"
Sunlit
Object is in daylight
Visualization observer readout
Local Sidereal Time13:47:37
Azimuth11.806° NNE
Elevation-16.647°
Doppler factor1
Orbital elements
Apogee altitude684.789 km
Perigee altitude682.687 km
Semi-major axis7,061.875 km
Eccentricity0.0001488
Inclination97.9645°
RAAN35.358°
Arg. of periapsis83.3949°
True anomaly276.72527°
Mean anomaly276.7422°
Eccentric anomaly276.73373°
Mean motion3.65732 °/min
BSTAR0.00042078
Orbital period98.43 mins
Loading maneuver chart data...
Loading historical data...
Loading historical data...
Loading historical data...
Loading historical data...
Loading historical data...
Loading historical data...
Loading historical data...
Other satellites on launch #77 in the year 2018 (2018-10-09 UTC)

YAOGAN-32 B Visibility forecast

Observer location: undefined°, undefined

Span
Click to sort rows by Start time (UTC) header in descending order
Start Az.
Max El. time (UTC)
Max El. Az.
Max El.
End time (UTC)
End Az.
7 mins2024-12-26 14:34:47.145Z39.647° NE2024-12-26 14:38:47.145Z103.906° ESE24.269°2024-12-26 14:41:47.145Z149.36° SSE
5 mins2024-12-26 16:13:47.145Z330.99° NNW2024-12-26 16:15:47.145Z291.323° WNW25.699°2024-12-26 16:18:47.145Z239.868° WSW
6 mins2024-12-27 01:38:47.145Z114.422° SE2024-12-27 01:41:47.145Z62.575° ENE23.587°2024-12-27 01:44:47.145Z16.976° NNE
6 mins2024-12-27 03:16:47.145Z221.493° SW2024-12-27 03:18:47.145Z262.146° W26.673°2024-12-27 03:22:47.145Z324.45° NNW
|